When you browse on this site, cookies collect data to enhance your experience and personalize the content and advertising you see.
Visit our Privacy Policy to learn more. By continuing to use the site, you agree to this use of cookies and data.
  • In Austria
  • List of Countries
  • For 7 days
  • Water Temperature
  • Satellite Maps
  • Weather Map
  • News
  • Weather Widgets
  • user-avatar
    Login

    Hourly Weather Nagano

    Today, 17 July, Wednesday

    Time Temperature Precipitation Wind Pressure Humidity
    00:00 +19°C° 0.1 mm 1 mps 694 mmHg 93%
    01:00 +19°C° 0.1 mm 1 mps 694 mmHg 93%
    02:00 +19°C° 0.1 mm 1 mps 694 mmHg 93%
    03:00 +19°C° 0.1 mm 1 mps 693 mmHg 93%
    04:00 +17°C° 0 mm 0 mps 694 mmHg 92%
    05:00 +18°C° 0 mm 0 mps 694 mmHg 91%
    06:00 +18°C° 0 mm 0 mps 694 mmHg 91%
    07:00 +20°C° 0 mm 0 mps 695 mmHg 82%
    08:00 +23°C° 0 mm 0 mps 695 mmHg 74%
    09:00 +25°C° 0 mm 0 mps 695 mmHg 65%
    10:00 +26°C° 0.3 mm 0 mps 695 mmHg 61%
    11:00 +30°C° 0.3 mm 1 mps 696 mmHg 57%
    12:00 +31°C° 0.3 mm 1 mps 696 mmHg 53%
    13:00 +30°C° 0.5 mm 1 mps 695 mmHg 57%
    14:00 +29°C° 0.5 mm 1 mps 695 mmHg 62%
    15:00 +28°C° 0.5 mm 2 mps 694 mmHg 66%
    16:00 +27°C° 1 mm 1 mps 694 mmHg 73%
    17:00 +26°C° 1 mm 1 mps 694 mmHg 79%
    18:00 +25°C° 1 mm 1 mps 695 mmHg 85%
    19:00 +24°C° 0.4 mm 1 mps 694 mmHg 87%
    20:00 +22°C° 0.4 mm 1 mps 694 mmHg 88%
    21:00 +21°C° 0.4 mm 1 mps 694 mmHg 89%
    22:00 +21°C° 0 mm 1 mps 694 mmHg 90%
    23:00 +21°C° 0 mm 1 mps 694 mmHg 90%

    Tomorrow, 18 July, Thursday

    Time Temperature Precipitation Wind Pressure Humidity
    00:00 +20°C° 0 mm 1 mps 694 mmHg 91%
    01:00 +20°C° 0 mm 1 mps 694 mmHg 91%
    02:00 +20°C° 0 mm 1 mps 694 mmHg 92%
    03:00 +20°C° 0 mm 1 mps 693 mmHg 92%
    04:00 +20°C° 0 mm 1 mps 694 mmHg 92%
    05:00 +20°C° 0 mm 1 mps 694 mmHg 91%
    06:00 +21°C° 0 mm 1 mps 694 mmHg 91%
    07:00 +20°C° 0 mm 0 mps 694 mmHg 86%
    08:00 +22°C° 0 mm 0 mps 695 mmHg 80%
    09:00 +23°C° 0 mm 0 mps 695 mmHg 75%
    10:00 +25°C° 0 mm 0 mps 695 mmHg 69%
    11:00 +26°C° 0 mm 0 mps 695 mmHg 63%
    12:00 +27°C° 0 mm 0 mps 695 mmHg 56%
    13:00 +27°C° 0.2 mm 0 mps 695 mmHg 58%
    14:00 +30°C° 0.2 mm 1 mps 695 mmHg 59%
    15:00 +30°C° 0.2 mm 1 mps 694 mmHg 60%
    16:00 +28°C° 1.2 mm 1 mps 694 mmHg 69%
    17:00 +26°C° 1.2 mm 1 mps 694 mmHg 79%
    18:00 +24°C° 1.2 mm 1 mps 694 mmHg 88%
    19:00 +23°C° 2.6 mm 1 mps 694 mmHg 90%
    20:00 +23°C° 2.6 mm 1 mps 694 mmHg 92%
    21:00 +20°C° 2.6 mm 0 mps 694 mmHg 94%
    22:00 +20°C° 0.1 mm 0 mps 694 mmHg 93%
    23:00 +22°C° 0.1 mm 1 mps 694 mmHg 93%

    Day after tomorrow, 19 July, Friday

    Time Temperature Precipitation Wind Pressure Humidity
    00:00 +22°C° 0.1 mm 1 mps 694 mmHg 93%
    01:00 +22°C° 0.2 mm 1 mps 693 mmHg 93%
    02:00 +22°C° 0.2 mm 1 mps 693 mmHg 93%
    03:00 +21°C° 0.2 mm 1 mps 693 mmHg 93%
    04:00 +22°C° 0 mm 1 mps 693 mmHg 92%
    05:00 +22°C° 0 mm 1 mps 693 mmHg 92%
    06:00 +22°C° 0 mm 1 mps 693 mmHg 92%
    07:00 +23°C° 0.1 mm 1 mps 694 mmHg 90%
    08:00 +23°C° 0.1 mm 1 mps 694 mmHg 89%
    09:00 +24°C° 0.1 mm 1 mps 694 mmHg 88%
    10:00 +26°C° 0.3 mm 1 mps 694 mmHg 81%
    11:00 +27°C° 0.3 mm 1 mps 694 mmHg 74%
    12:00 +29°C° 0.3 mm 1 mps 694 mmHg 67%
    13:00 +29°C° 0.7 mm 1 mps 694 mmHg 71%
    14:00 +28°C° 0.7 mm 1 mps 694 mmHg 76%
    15:00 +27°C° 0.7 mm 1 mps 693 mmHg 81%
    16:00 +27°C° 0.7 mm 1 mps 693 mmHg 83%
    17:00 +26°C° 0.7 mm 1 mps 693 mmHg 84%
    18:00 +25°C° 0.7 mm 1 mps 694 mmHg 86%
    19:00 +24°C° 0.3 mm 1 mps 694 mmHg 87%
    20:00 +24°C° 0.3 mm 1 mps 694 mmHg 88%
    21:00 +23°C° 0.3 mm 1 mps 694 mmHg 89%
    22:00 +23°C° 0 mm 1 mps 694 mmHg 90%
    23:00 +22°C° 0 mm 1 mps 694 mmHg 91%

    20 July, Saturday

    Time Temperature Precipitation Wind Pressure Humidity
    00:00 +22°C° 0 mm 1 mps 693 mmHg 91%
    01:00 +22°C° 0 mm 1 mps 693 mmHg 91%
    02:00 +22°C° 0 mm 1 mps 693 mmHg 91%
    03:00 +21°C° 0 mm 1 mps 693 mmHg 91%
    04:00 +22°C° 0 mm 1 mps 693 mmHg 91%
    05:00 +22°C° 0 mm 1 mps 693 mmHg 91%
    06:00 +22°C° 0 mm 1 mps 693 mmHg 91%
    07:00 +23°C° 0 mm 1 mps 693 mmHg 86%
    08:00 +24°C° 0 mm 1 mps 693 mmHg 81%
    09:00 +26°C° 0 mm 2 mps 693 mmHg 76%
    10:00 +26°C° 0.2 mm 2 mps 693 mmHg 77%
    11:00 +26°C° 0.2 mm 2 mps 693 mmHg 77%
    12:00 +26°C° 0.2 mm 2 mps 693 mmHg 78%
    13:00 +26°C° 0.4 mm 2 mps 692 mmHg 78%
    14:00 +27°C° 0.4 mm 2 mps 692 mmHg 79%
    15:00 +27°C° 0.4 mm 2 mps 692 mmHg 79%
    16:00 +26°C° 0.3 mm 2 mps 692 mmHg 80%
    17:00 +26°C° 0.3 mm 2 mps 692 mmHg 82%
    18:00 +25°C° 0.3 mm 2 mps 692 mmHg 83%
    19:00 +24°C° 0.1 mm 2 mps 692 mmHg 84%
    20:00 +24°C° 0.1 mm 2 mps 693 mmHg 85%
    21:00 +23°C° 0.1 mm 2 mps 693 mmHg 86%
    22:00 +23°C° 0 mm 2 mps 693 mmHg 87%
    23:00 +21°C° 0 mm 2 mps 693 mmHg 87%

    21 July, Sunday

    Time Temperature Precipitation Wind Pressure Humidity
    00:00 +21°C° 0 mm 2 mps 692 mmHg 88%
    01:00 +21°C° 0 mm 2 mps 692 mmHg 88%
    02:00 +21°C° 0 mm 2 mps 692 mmHg 88%
    03:00 +21°C° 0 mm 2 mps 692 mmHg 88%
    04:00 +21°C° 0 mm 2 mps 692 mmHg 88%
    05:00 +21°C° 0 mm 2 mps 693 mmHg 88%
    06:00 +22°C° 0 mm 1 mps 693 mmHg 88%
    07:00 +23°C° 0 mm 1 mps 693 mmHg 84%
    08:00 +24°C° 0 mm 1 mps 693 mmHg 80%
    09:00 +25°C° 0 mm 1 mps 693 mmHg 77%
    10:00 +25°C° 0 mm 1 mps 693 mmHg 75%
    11:00 +26°C° 0 mm 1 mps 693 mmHg 73%
    12:00 +26°C° 0 mm 1 mps 693 mmHg 71%
    13:00 +28°C° 0 mm 1 mps 693 mmHg 65%
    14:00 +29°C° 0 mm 2 mps 693 mmHg 58%
    15:00 +31°C° 0 mm 2 mps 693 mmHg 52%
    16:00 +29°C° 0.1 mm 2 mps 693 mmHg 59%
    17:00 +28°C° 0.1 mm 2 mps 693 mmHg 65%
    18:00 +26°C° 0.1 mm 1 mps 693 mmHg 71%
    19:00 +25°C° 0 mm 1 mps 693 mmHg 73%
    20:00 +24°C° 0 mm 1 mps 693 mmHg 75%
    21:00 +24°C° 0 mm 1 mps 693 mmHg 76%
    22:00 +23°C° 0 mm 1 mps 693 mmHg 77%
    23:00 +23°C° 0 mm 2 mps 693 mmHg 78%

    22 July, Monday

    Time Temperature Precipitation Wind Pressure Humidity
    00:00 +23°C° 0 mm 2 mps 692 mmHg 79%
    01:00 +22°C° 0.1 mm 1 mps 692 mmHg 82%
    02:00 +22°C° 0.1 mm 1 mps 692 mmHg 84%
    03:00 +22°C° 0.1 mm 1 mps 692 mmHg 87%
    04:00 +22°C° 0.2 mm 1 mps 692 mmHg 88%
    05:00 +22°C° 0.2 mm 1 mps 692 mmHg 89%
    06:00 +22°C° 0.2 mm 1 mps 692 mmHg 91%
    07:00 +22°C° 0.7 mm 1 mps 692 mmHg 91%
    08:00 +22°C° 0.7 mm 1 mps 692 mmHg 91%
    09:00 +23°C° 0.7 mm 1 mps 693 mmHg 91%
    10:00 +24°C° 0.3 mm 1 mps 693 mmHg 88%
    11:00 +24°C° 0.3 mm 1 mps 693 mmHg 84%
    12:00 +25°C° 0.3 mm 2 mps 693 mmHg 80%
    13:00 +25°C° 1 mm 1 mps 692 mmHg 84%
    14:00 +24°C° 1 mm 1 mps 692 mmHg 88%
    15:00 +24°C° 1 mm 1 mps 692 mmHg 91%
    16:00 +23°C° 0.5 mm 1 mps 692 mmHg 92%
    17:00 +23°C° 0.5 mm 1 mps 692 mmHg 93%
    18:00 +21°C° 0.5 mm 0 mps 692 mmHg 93%
    19:00 +23°C° 0 mm 1 mps 692 mmHg 94%
    20:00 +22°C° 0 mm 1 mps 692 mmHg 94%
    21:00 +22°C° 0 mm 1 mps 692 mmHg 94%
    22:00 +22°C° 0 mm 1 mps 692 mmHg 94%
    23:00 +21°C° 0 mm 1 mps 692 mmHg 93%
    Show more